SCP
7 6 5 4 4 4 4 4 3 3 3 5 6 6 6 6 6 6 5 3 3 2 2 2 1 1 1 1 1 1 2 2 2 2 1 1 1 1 1 1 1 1 1
7 6 5 4 4 4 4 4 4 3 4 5 5 5 5 5 5 5 5 4 3 3 2 2 2 1 1 1 1 1 1 2 2 1 1 1 1 1 1 1 1 0 0
8 7 5 5 4 4 4 4 5 5 5 5 5 5 5 5 5 5 5 5 4 4 3 2 2 1 1 1 1 1 1 1 1 1 1 1 1 1 1 1 1 0 0
8 7 6 5 4 4 5 6 7 6 5 5 5 5 5 5 5 6 6 5 5 4 3 2 2 2 1 1 1 1 1 1 1 1 1 1 1 1 1 1 1 1 1
7 7 6 6 6 6 7 8 8 7 6 5 5 5 4 4 4 5 5 4 4 3 2 2 2 2 1 1 1 1 1 1 1 1 0 0 0 1 1 1 1 1 1
9 9 8 7 7 7 8 9 9 7 6 5 4 4 4 3 2 3 3 3 2 2 2 2 1 1 1 1 1 1 1 1 1 1 0 0 0 1 1 1 1 1 0
12 11 9 8 7 7 8 9 9 8 6 5 4 4 3 2 1 2 2 2 2 2 2 2 1 1 1 1 0 0 0 0 0 1 0 0 0 1 1 0 0 0 0
10 9 8 7 7 7 8 9 10 9 7 5 4 4 3 2 1 1 2 2 3 3 3 2 2 1 1 1 1 0 0 0 0 0 0 0 0 0 0 0 0 0 0
7 7 7 7 7 7 8 9 11 10 8 7 6 5 5 3 1 1 2 3 3 4 4 3 2 1 1 0 0 0 0 0 0 0 0 0 0 0 0 0 0 0 0
7 7 7 7 8 9 10 11 11 10 9 9 8 8 7 5 2 1 1 3 4 5 5 3 2 1 0 0 0 0 0 0 0 0 0 0 0 0 0 0 0 0 0
8 8 9 9 10 11 13 13 13 12 11 11 10 10 9 6 2 0 1 2 4 5 5 3 1 0 0 0 0 0 0 0 0 0 0 0 0 0 0 0 0 0 0
12 11 11 12 12 12 14 15 14 13 12 11 11 11 10 6 2 0 0 1 2 4 4 2 1 0 0 0 0 0 0 0 0 0 0 0 0 0 0 0 0 0 0
14 12 12 14 14 13 14 15 14 14 12 11 11 10 9 6 3 1 0 0 1 2 2 1 0 0 0 0 0 0 0 0 0 0 0 0 0 0 0 0 0 0 0
11 11 11 12 15 15 14 13 12 11 10 9 9 8 7 7 5 2 1 0 0 1 1 0 0 0 0 0 0 0 0 0 0 0 0 0 0 0 0 0 0 0 0
9 9 10 12 14 14 12 9 6 6 6 5 6 5 6 6 5 2 1 1 1 1 1 0 0 0 0 0 0 0 0 0 0 0 0 0 0 0 0 0 0 0 0
8 8 9 12 13 12 10 6 3 2 2 1 2 3 3 3 2 1 1 1 0 1 1 0 0 0 0 0 0 0 0 0 0 0 0 0 0 0 0 0 0 0 0
7 6 7 10 11 10 9 6 3 2 1 0 0 1 1 1 0 0 0 0 0 0 0 0 0 0 0 0 0 0 0 0 0 0 0 0 0 0 0 0 0 0 0
5 4 5 6 7 8 7 6 4 3 2 1 0 0 0 0 0 0 0 0 0 0 0 0 0 0 0 0 0 0 0 0 0 0 0 0 0 0 0 0 0 0 0
4 4 4 5 5 6 6 4 3 3 3 2 1 0 0 0 0 0 0 0 0 0 0 0 0 0 0 0 0 0 0 0 0 0 0 0 0 0 0 0 0 0 0
4 3 4 4 5 5 4 3 3 3 4 3 2 1 0 0 0 0 0 0 0 0 0 0 0 0 0 0 0 0 0 0 0 0 0 0 0 0 0 0 0 0 0
4 3 3 4 3 3 3 2 2 3 3 3 2 1 0 0 0 0 0 0 0 0 0 0 0 0 0 0 0 0 0 0 0 0 0 0 0 0 0 0 0 0 0
4 3 3 2 2 2 2 2 2 2 2 3 2 1 0 0 0 0 0 0 0 0 0 0 0 0 0 0 0 0 0 0 0 0 0 0 0 0 0 0 0 0 0
3 2 2 2 2 2 2 2 2 1 2 2 1 1 1 1 1 1 1 0 0 0 0 0 0 0 0 0 0 0 0 0 0 0 0 0 0 0 0 0 0 0 0
2 2 2 2 2 2 2 2 2 1 1 1 1 1 1 1 1 1 1 1 1 0 0 0 0 0 0 0 0 0 0 0 0 0 0 0 0 0 0 0 0 0 0
2 2 2 2 2 2 2 2 2 1 1 1 2 2 2 1 1 1 1 1 1 0 0 0 0 0 0 0 0 0 0 0 0 0 0 0 0 0 0 0 0 0 0
2 2 2 3 3 3 3 2 2 1 1 1 2 2 1 1 1 1 1 1 0 0 0 0 0 0 0 0 0 0 0 0 0 0 0 0 0 0 0 0 0 0 0
Wind_Speed
4 3 3 3 3 2 2 2 2 2 2 2 2 2 2 2 2 2 3 3 3 3 3 3 3 3 3 2 2 2 1 2 2 1 2 2 4 5 5 4 4 5 5
5 5 4 3 3 3 3 2 2 2 2 2 2 3 3 3 3 3 4 4 4 5 4 4 4 4 4 3 2 2 2 2 3 3 2 2 4 4 4 4 4 4 4
7 6 5 4 4 3 3 3 3 2 2 3 3 3 3 3 4 4 4 4 5 5 5 5 5 5 4 4 3 3 2 3 3 4 3 3 3 3 3 4 5 3 4
7 6 5 4 4 4 3 3 3 3 3 3 3 3 3 4 5 4 4 4 5 6 6 6 6 6 6 4 4 4 4 4 4 4 4 3 2 2 2 3 3 2 3
7 6 6 5 4 4 4 3 3 3 4 4 3 4 4 5 6 5 4 5 5 5 6 7 8 9 10 7 5 4 4 4 4 4 4 3 3 2 2 1 3 2 2
6 6 6 6 5 4 4 4 4 4 4 4 5 6 7 6 8 9 6 5 5 5 5 5 6 8 9 10 10 9 8 5 4 3 3 3 3 2 2 2 2 1 1
6 6 6 6 5 4 5 5 5 4 4 5 6 6 7 7 10 10 9 5 6 6 6 5 6 7 7 5 6 8 9 9 7 4 4 3 3 2 2 2 1 1 2
6 6 5 5 5 5 4 5 5 4 4 4 5 6 6 7 9 9 7 5 6 6 6 6 6 6 7 6 6 7 7 7 6 5 4 4 4 3 2 1 1 2 2
7 6 5 5 5 5 5 5 5 4 4 5 5 5 6 6 7 8 6 3 5 6 7 7 6 6 8 8 5 5 6 5 7 8 7 6 5 4 3 2 2 2 2
6 6 5 5 5 5 5 5 5 4 5 5 5 5 5 5 7 8 7 2 4 5 5 6 9 8 8 8 5 5 5 4 3 4 4 4 4 4 5 3 2 1 1
6 6 5 5 5 6 5 5 5 5 5 5 5 5 5 5 6 8 8 3 3 4 5 5 5 8 8 8 6 4 3 2 1 2 3 3 3 3 3 3 3 3 2
6 6 6 5 5 6 6 5 5 5 5 5 5 5 4 4 5 6 8 8 6 5 5 4 4 5 6 6 4 4 5 4 1 2 3 3 2 2 2 2 2 2 2
7 6 6 6 5 6 5 5 4 4 4 4 4 4 4 4 4 6 7 8 8 5 4 5 4 2 1 1 2 4 4 2 2 2 2 2 2 1 1 1 2 1 1
7 7 6 6 6 5 3 4 3 3 3 3 3 4 4 4 3 3 3 4 5 4 3 2 2 1 1 1 1 1 1 2 2 2 2 1 1 1 1 1 1 0 1
7 6 6 6 6 5 4 3 3 3 2 2 2 3 3 4 3 3 3 2 2 2 1 1 1 1 1 1 1 1 1 1 2 2 2 1 1 1 1 1 1 1 1
7 6 5 5 5 5 6 5 9 7 8 9 7 6 5 6 7 7 6 5 4 3 1 0 1 1 1 1 1 1 1 2 2 2 1 1 1 1 1 1 1 1 1
6 6 5 5 5 5 5 6 5 5 8 9 8 9 8 8 7 6 5 4 2 2 0 0 1 1 0 1 1 1 1 1 1 1 1 2 2 1 1 1 1 1 1
6 5 5 4 5 4 4 4 5 6 5 4 5 6 8 7 6 5 4 3 1 1 1 1 0 0 0 1 1 2 2 2 1 1 1 2 2 1 1 1 1 1 1
5 4 4 4 4 4 4 4 4 5 6 6 5 4 4 5 4 3 3 1 1 1 2 1 0 0 0 1 1 1 1 1 0 1 1 1 1 1 1 2 1 1 1
4 4 4 4 4 4 4 4 5 5 5 6 6 6 5 5 4 4 3 3 2 2 1 1 1 0 1 1 1 1 1 1 0 0 1 1 1 1 2 2 2 1 1
4 5 5 4 4 4 4 4 4 4 5 5 4 6 8 6 5 5 4 4 3 2 1 1 1 1 1 1 1 1 1 1 1 1 1 1 1 1 1 1 1 2 2
4 5 4 4 3 3 3 3 4 4 5 5 5 6 8 5 4 4 4 4 3 2 1 1 1 1 1 1 1 1 1 1 2 2 2 1 1 1 2 2 2 2 2
4 5 4 3 3 3 3 3 3 4 4 4 5 6 6 4 3 3 3 3 2 2 2 1 1 1 2 2 2 2 2 2 2 2 3 2 2 2 2 2 2 2 2
4 5 5 4 3 3 4 3 3 3 4 4 4 5 5 4 3 2 2 2 2 2 2 2 2 3 4 3 2 3 4 3 3 3 4 3 3 3 2 2 2 3 2
4 4 4 4 4 3 3 3 3 3 3 4 4 4 4 4 3 3 2 2 3 3 3 2 2 3 5 7 6 5 5 5 4 4 3 4 4 3 3 3 3 3 3
4 4 4 4 4 3 3 3 3 3 3 3 3 3 4 4 3 3 3 3 3 3 3 3 4 6 7 6 7 6 4 4 4 5 4 3 3 3 4 3 4 4 3
Wind_Direction
138 133 120 122 120 110 87 71 59 40 23 19 17 22 21 15 8 20 40 24 35 34 31 31 23 22 18 17 34 43 59 108 124 92 77 83 77 81 90 89 96 91 83
137 126 120 117 117 111 98 80 69 60 44 34 26 26 30 32 28 37 42 39 39 39 36 32 27 32 33 25 30 42 67 102 124 120 94 81 76 89 98 101 97 92 90
135 130 127 123 116 107 92 81 74 67 54 47 45 44 43 38 41 44 47 52 51 48 44 43 33 34 35 32 34 31 48 73 89 107 98 81 81 84 95 85 80 79 95
134 132 130 126 118 109 100 92 86 82 72 58 52 51 54 50 42 45 57 57 62 62 57 51 43 42 35 29 44 39 52 68 84 97 101 95 82 64 78 85 82 63 72
135 137 137 129 119 112 107 100 88 79 78 67 59 52 50 56 39 35 57 70 66 71 71 70 65 63 58 52 55 47 54 66 81 92 101 97 88 78 69 84 96 96 78
137 139 132 126 124 120 113 102 92 81 72 66 63 60 55 49 27 33 46 67 63 62 64 74 83 65 63 65 65 60 61 69 73 84 93 99 96 87 73 93 104 106 81
135 134 132 132 131 126 120 110 102 93 83 72 73 75 71 47 32 33 40 63 66 58 53 49 57 56 50 49 68 71 61 57 66 85 86 88 95 86 94 90 80 81 89
139 137 136 138 133 124 116 112 106 100 93 85 82 84 82 58 39 34 33 77 74 66 58 54 62 53 37 33 58 66 62 51 55 70 76 75 79 70 60 86 114 108 99
143 141 139 136 132 128 121 115 110 107 101 94 88 84 83 65 37 30 17 91 89 80 72 58 53 53 29 35 57 70 76 72 71 79 85 87 81 70 53 54 46 73 88
138 136 132 132 131 127 122 118 115 113 110 105 95 86 85 76 42 32 16 80 101 102 94 78 57 48 38 39 53 60 59 47 58 81 85 89 94 81 65 56 41 40 68
129 127 127 126 124 121 116 118 121 117 110 106 103 93 83 77 63 43 42 49 59 91 94 83 62 48 46 40 44 56 46 13 57 85 90 82 73 70 61 52 37 52 58
124 124 123 125 129 122 121 123 124 126 125 122 119 114 102 86 67 62 61 58 52 72 84 92 87 63 48 40 41 22 9 7 55 74 80 79 75 69 63 63 64 61 81
126 126 125 124 114 121 131 136 139 148 150 146 147 136 124 115 95 79 74 70 69 75 82 96 107 98 32 34 47 12 5 8 26 59 75 77 75 70 78 78 72 63 46
135 134 134 131 126 123 131 140 146 151 152 148 144 136 133 129 121 110 110 104 101 106 113 125 164 241 275 314 5 10 30 20 11 42 67 74 77 62 53 82 100 170 113
142 141 140 138 138 132 108 71 96 69 71 117 114 121 132 123 113 120 121 110 111 93 114 172 183 173 180 148 109 76 39 27 26 34 46 44 48 60 34 31 28 0 29
150 154 156 155 147 143 129 99 56 74 76 78 81 91 90 106 121 108 94 87 86 99 107 174 114 79 69 81 84 96 81 45 14 13 26 29 3 37 51 32 28 4 4
158 162 162 162 159 164 159 149 131 92 72 70 84 96 109 119 116 108 98 85 72 90 114 235 100 77 34 66 72 65 77 66 16 7 16 16 0 10 43 48 20 1 353
162 164 170 167 163 167 165 160 154 151 141 118 95 107 122 125 125 118 106 95 103 189 229 255 127 141 71 44 55 64 69 65 34 12 15 7 358 358 359 355 7 358 345
167 167 171 157 158 166 162 156 155 152 147 141 133 126 136 134 129 127 131 185 202 213 206 220 193 83 92 82 77 89 95 96 61 346 2 0 345 343 343 339 343 346 323
156 154 160 159 165 163 159 161 159 156 157 154 153 149 152 159 166 169 185 217 223 225 202 173 131 74 81 88 72 61 81 89 57 340 19 348 333 332 333 329 328 325 321
163 158 163 171 176 170 170 166 162 163 162 159 155 155 164 175 178 177 179 199 217 219 189 165 156 170 129 116 105 68 30 42 34 359 360 343 326 325 314 310 320 325 325
164 165 175 183 178 167 163 162 167 167 167 161 149 152 174 191 184 179 182 195 203 195 172 175 171 129 99 97 80 63 46 27 18 353 333 313 301 305 314 321 331 333 330
170 167 170 174 163 154 168 171 165 163 161 158 156 156 172 195 193 189 186 188 179 160 142 135 126 104 94 82 73 57 44 27 358 348 329 320 322 317 311 313 315 314 322
171 169 171 173 171 172 172 166 164 166 169 166 160 161 169 183 194 192 175 153 145 141 133 124 109 95 89 81 73 67 51 29 360 353 343 326 320 319 319 318 313 319 325
168 167 162 161 171 172 166 168 171 175 171 166 165 167 170 176 180 176 157 147 146 142 141 128 113 104 99 84 73 71 68 52 37 6 342 324 322 326 321 319 322 320 323
175 168 161 164 166 167 173 179 178 175 173 169 167 168 172 174 172 165 161 157 153 145 137 119 110 104 101 95 90 90 81 56 30 2 331 311 314 323 328 323 322 319 317